Temperature
7 7 7 6 6 6 6 6 5 5 5 5 4 4 4 4 3 3 3 2 2 2 2 2 2 1 1 1 1 1 0 -0 -0 1 1 1 1 2 2 2 2 3 3
7 7 7 6 6 6 6 5 5 5 5 4 4 4 4 3 3 3 2 2 2 2 2 1 1 1 1 1 0 0 -0 -0 -1 -1 0 0 0 0 1 1 1 1 2
7 6 6 6 6 6 5 5 5 5 4 4 4 4 3 3 3 2 2 2 2 1 1 1 1 0 0 0 -0 -0 -0 -1 -1 -1 -1 -1 -1 -1 -0 -0 0 1 1
6 6 6 6 5 5 5 5 4 4 4 4 3 3 3 3 2 2 2 2 1 1 1 1 0 0 -0 -0 -1 -1 -1 -1 -1 -2 -2 -2 -2 -2 -2 -1 -1 -0 0
6 6 6 5 5 5 5 4 4 4 4 3 3 3 3 2 2 2 2 1 1 1 0 0 -0 -0 -1 -1 -1 -1 -2 -2 -2 -2 -2 -3 -3 -3 -3 -3 -3 -2 -1
5 5 5 5 5 5 4 4 4 4 3 3 3 3 2 2 2 1 1 1 1 0 0 0 -0 -1 -1 -1 -2 -2 -2 -3 -3 -3 -3 -3 -3 -3 -4 -4 -4 -4 -3
5 5 5 5 4 4 4 4 3 3 3 3 2 2 2 2 1 1 1 1 0 0 -0 -1 -1 -1 -1 -2 -2 -2 -2 -3 -3 -4 -4 -4 -4 -4 -4 -4 -4 -5 -4
5 4 4 4 4 4 3 3 3 3 2 2 2 2 2 1 1 1 0 0 -0 -0 -1 -1 -1 -2 -2 -2 -2 -3 -3 -3 -3 -4 -4 -4 -4 -4 -5 -5 -5 -5 -4
4 4 4 4 4 3 3 3 3 2 2 2 2 2 1 1 1 0 -0 -0 -1 -1 -1 -2 -2 -2 -2 -3 -3 -3 -3 -3 -3 -4 -4 -4 -4 -5 -5 -5 -5 -6 -5
4 4 4 3 3 3 3 3 2 2 2 2 1 1 1 1 0 -0 -0 -1 -1 -1 -2 -2 -2 -3 -3 -3 -4 -4 -3 -3 -4 -4 -4 -4 -5 -5 -5 -6 -6 -6 -7
3 3 3 3 3 3 2 2 2 1 1 1 1 1 0 0 -0 -1 -1 -1 -2 -2 -2 -2 -3 -3 -4 -4 -4 -4 -4 -5 -5 -5 -5 -5 -5 -5 -5 -6 -6 -7 -7
3 3 3 3 2 2 2 2 1 1 1 0 0 0 -0 -0 -1 -1 -1 -2 -2 -3 -3 -3 -3 -4 -4 -4 -4 -4 -5 -5 -5 -5 -5 -5 -5 -5 -6 -6 -6 -6 -6
3 3 2 2 2 2 1 1 1 0 0 0 -0 -0 -1 -1 -1 -2 -2 -2 -3 -3 -3 -4 -4 -4 -4 -5 -5 -5 -5 -6 -6 -6 -6 -6 -6 -6 -6 -6 -6 -6 -6
2 2 2 2 2 1 1 1 0 0 0 -0 -1 -1 -1 -2 -2 -2 -2 -3 -3 -3 -4 -4 -4 -5 -5 -5 -5 -5 -6 -6 -6 -7 -7 -7 -7 -7 -7 -7 -7 -7 -7
2 2 2 1 1 1 1 0 0 -0 -0 -1 -1 -2 -2 -2 -2 -3 -3 -3 -4 -4 -4 -5 -5 -5 -5 -5 -6 -6 -6 -6 -7 -7 -7 -7 -8 -7 -7 -7 -8 -8 -8
1 1 1 1 1 1 0 0 -0 -1 -1 -2 -2 -2 -2 -3 -3 -3 -3 -4 -4 -4 -5 -5 -5 -6 -6 -6 -6 -6 -7 -7 -7 -8 -8 -8 -8 -8 -8 -8 -8 -8 -8
1 1 1 0 0 0 -0 -0 -1 -1 -1 -2 -2 -3 -3 -3 -3 -4 -4 -4 -5 -5 -5 -5 -6 -6 -6 -6 -7 -7 -7 -7 -8 -8 -8 -8 -9 -9 -9 -9 -9 -9 -9
1 0 -0 -0 -0 -0 -1 -1 -1 -2 -2 -2 -2 -3 -3 -3 -4 -4 -4 -5 -5 -5 -5 -5 -6 -6 -6 -7 -7 -7 -8 -8 -8 -8 -9 -9 -9 -9 -9 -9 -9 -9 -10
0 -0 -0 -1 -1 -1 -1 -2 -2 -2 -2 -2 -3 -3 -3 -4 -4 -4 -5 -5 -5 -5 -5 -6 -6 -6 -7 -7 -7 -8 -8 -8 -8 -9 -9 -9 -9 -9 -10 -9 -10 -10 -10
-0 -0 -1 -1 -1 -2 -2 -2 -2 -3 -3 -3 -3 -3 -4 -4 -5 -5 -5 -5 -5 -6 -6 -6 -6 -7 -7 -7 -8 -8 -8 -8 -9 -9 -9 -9 -9 -10 -10 -10 -10 -10 -10
-1 -1 -1 -1 -2 -2 -2 -3 -3 -3 -3 -3 -4 -4 -4 -5 -5 -5 -5 -5 -6 -6 -6 -6 -7 -7 -7 -7 -8 -8 -8 -9 -9 -9 -9 -9 -9 -9 -10 -10 -10 -10 -10
-1 -1 -2 -2 -2 -3 -3 -3 -3 -4 -4 -4 -4 -4 -5 -5 -5 -5 -6 -6 -6 -6 -6 -7 -7 -7 -7 -8 -8 -8 -8 -9 -9 -9 -9 -9 -9 -9 -10 -10 -10 -10 -10
-2 -2 -2 -2 -3 -3 -4 -4 -4 -4 -4 -4 -5 -5 -5 -5 -5 -6 -6 -6 -6 -6 -7 -7 -7 -7 -7 -8 -8 -8 -9 -9 -9 -9 -9 -9 -9 -10 -10 -10 -10 -10 -10
-2 -2 -3 -3 -3 -4 -4 -4 -4 -4 -5 -5 -5 -5 -6 -6 -6 -6 -6 -6 -6 -7 -7 -7 -7 -7 -8 -8 -8 -8 -9 -9 -9 -9 -9 -9 -9 -10 -10 -10 -10 -10 -10
-2 -3 -3 -3 -4 -4 -4 -4 -4 -5 -5 -5 -5 -6 -6 -6 -6 -6 -6 -7 -7 -7 -7 -7 -7 -8 -8 -8 -8 -8 -9 -9 -9 -9 -9 -9 -10 -10 -10 -10 -10 -10 -10
-3 -3 -3 -4 -4 -4 -4 -5 -5 -5 -5 -5 -6 -6 -6 -6 -6 -6 -7 -7 -7 -7 -7 -7 -8 -8 -8 -8 -8 -8 -9 -9 -9 -9 -9 -10 -10 -10 -10 -10 -10 -10 -10
Wind_Speed
5 5 5 5 5 5 4 5 4 4 3 3 3 3 3 3 2 2 3 3 3 3 3 3 3 4 3 3 3 3 3 4 7 6 5 6 8 7 9 10 11 11 12
5 5 5 5 5 5 5 5 5 5 4 4 3 3 3 3 3 3 4 3 3 3 3 3 3 3 3 3 3 3 4 4 5 8 7 6 7 7 7 8 9 11 11
4 5 5 5 6 6 6 5 5 5 4 4 4 4 3 3 3 3 3 3 3 3 3 3 3 3 3 3 4 4 3 4 4 6 7 6 6 6 8 8 8 7 10
4 5 6 6 6 6 6 5 5 5 5 5 4 4 4 3 3 3 3 3 3 3 3 3 3 2 3 4 4 4 4 4 5 5 6 6 6 6 6 7 8 7 8
5 6 7 6 6 5 5 5 5 5 6 5 4 4 4 4 3 3 3 4 4 4 3 3 3 3 4 4 4 4 4 4 5 5 6 6 6 6 6 6 8 8 8
5 6 6 5 5 6 6 5 5 6 5 5 5 5 5 4 6 7 5 4 4 4 4 3 3 4 5 7 8 8 6 5 5 5 5 7 7 7 6 7 8 8 7
5 5 5 5 6 6 6 6 6 6 6 6 6 6 6 6 8 8 8 4 4 4 4 3 3 3 5 4 6 8 8 10 9 6 6 7 7 7 7 8 8 9 9
5 6 6 6 6 6 6 6 6 5 6 6 6 6 5 6 8 8 8 5 4 5 4 4 3 3 4 4 4 4 5 6 8 5 5 6 7 6 6 7 9 9 9
6 6 6 6 6 6 7 7 6 5 6 6 5 6 6 6 8 9 8 3 4 5 4 4 4 4 6 7 5 4 5 5 8 10 11 11 12 13 10 6 6 7 8
6 6 6 5 6 7 7 7 5 5 6 5 5 5 6 6 8 9 8 3 4 4 4 4 6 6 7 7 4 4 6 6 6 7 7 9 8 9 10 5 4 6 7
6 6 6 6 6 7 6 5 5 5 5 5 6 6 6 7 8 10 9 4 4 4 4 3 4 7 8 8 7 4 8 8 5 5 5 5 4 4 4 4 4 4 6
5 6 6 6 6 5 6 5 5 5 5 6 5 5 5 6 8 9 11 10 7 5 4 3 4 8 9 9 7 7 10 9 4 4 4 5 5 5 5 5 7 7 8
5 6 6 6 6 5 6 6 5 5 5 5 5 6 5 4 6 10 10 10 10 6 5 7 8 9 9 7 8 9 7 4 3 4 5 5 4 5 5 5 6 7 8
7 7 6 6 6 5 5 5 5 6 6 6 6 6 5 4 4 4 4 5 7 7 5 6 9 9 7 7 7 5 3 3 3 4 4 5 5 5 5 5 6 7 7
7 6 6 6 6 5 5 6 6 6 7 7 6 5 5 5 7 8 5 4 4 5 4 3 3 3 3 3 3 3 3 3 4 3 4 5 6 6 6 6 6 6 7
7 7 6 5 5 5 4 4 8 9 11 11 10 8 6 8 8 8 9 9 10 10 6 4 4 4 4 4 4 3 3 3 3 4 4 5 6 7 7 7 6 7 8
8 7 5 5 5 5 5 5 5 5 9 11 11 11 10 9 9 9 10 10 10 9 5 4 4 4 4 4 4 3 4 4 3 4 5 5 6 6 7 7 7 8 8
7 8 7 6 6 6 6 5 5 5 5 5 8 11 11 11 10 10 10 7 6 6 4 5 5 4 4 4 4 4 4 4 4 4 5 5 5 6 7 7 7 8 9
6 6 6 5 5 5 5 5 5 6 6 5 4 6 10 9 10 10 8 5 5 5 5 5 5 4 4 4 4 4 4 5 5 5 5 6 6 6 7 7 8 12 11
6 9 8 5 5 5 5 5 6 6 6 6 6 5 4 5 5 5 5 5 5 5 5 5 5 4 4 4 4 4 5 6 6 6 6 6 6 6 8 9 8 9 9
5 6 9 6 6 6 6 6 6 6 6 6 6 6 8 5 6 6 5 5 6 6 5 5 4 4 4 4 4 5 6 6 6 6 6 6 6 7 7 8 9 9 9
5 5 5 6 6 6 6 6 6 6 7 7 5 6 10 6 5 5 5 5 5 5 4 4 4 4 4 5 5 5 6 7 7 6 7 7 7 7 8 8 8 8 9
5 6 6 6 6 8 8 6 6 6 7 6 6 5 5 6 6 6 6 5 5 4 4 4 5 5 5 5 6 6 7 7 7 7 7 8 8 8 8 9 10 10 10
6 6 7 6 6 6 6 6 6 7 7 6 6 6 6 6 6 6 5 5 4 5 5 5 6 7 7 6 7 8 9 10 10 8 9 9 9 9 9 9 10 11 10
6 6 7 7 7 7 7 7 7 7 7 6 6 6 5 5 6 5 5 5 5 5 6 6 5 6 8 9 9 9 12 14 14 11 10 9 10 10 10 10 10 10 10
6 7 7 7 7 7 7 7 7 7 6 6 6 6 6 6 6 5 5 5 5 5 6 6 7 8 9 9 11 12 14 15 15 15 11 8 9 9 9 9 10 10 9
Wind_Direction
220 216 216 216 216 216 219 222 223 228 230 238 248 256 263 271 283 290 289 294 298 301 304 308 310 308 311 309 308 304 298 290 285 294 305 319 327 332 328 327 324 322 320
221 219 219 220 216 221 226 224 221 225 223 225 235 245 255 264 268 274 282 287 283 288 297 303 302 311 313 310 311 304 301 299 294 298 307 318 321 324 326 325 328 326 321
222 223 225 226 222 225 226 221 219 222 223 221 221 230 241 248 253 264 271 278 278 281 291 298 303 315 316 318 313 308 307 311 306 299 305 312 314 324 327 325 323 320 323
224 228 231 232 230 229 224 219 217 219 219 221 224 229 235 241 242 255 269 274 274 275 271 270 281 291 297 305 305 302 308 307 306 303 303 308 311 318 323 325 325 326 323
226 233 236 234 232 229 223 221 220 220 221 220 225 231 236 240 244 250 260 271 275 279 281 277 277 279 289 294 297 295 304 301 301 300 302 309 312 322 324 324 322 320 312
232 240 241 235 233 228 224 221 220 222 221 219 224 226 233 241 252 256 257 264 270 270 271 277 282 282 294 300 302 306 305 298 296 294 297 302 306 311 316 321 321 320 315
244 245 241 236 235 232 225 222 222 222 220 223 226 224 231 238 248 255 259 259 259 260 259 263 275 285 299 292 299 306 307 304 297 289 290 294 301 309 314 313 312 310 300
253 249 243 235 235 233 227 227 226 222 221 224 228 227 230 240 249 256 257 256 260 259 252 244 251 266 279 291 294 299 296 298 298 296 280 286 295 297 295 300 300 302 296
257 252 246 238 235 231 230 230 228 223 226 225 225 224 228 240 246 250 249 250 256 259 252 243 248 251 272 291 294 292 295 295 304 305 303 302 305 309 311 313 312 312 307
260 255 248 240 235 232 232 233 228 222 225 222 227 225 227 235 244 246 243 233 249 257 256 253 262 263 271 287 287 283 289 292 301 309 308 308 308 310 314 311 304 304 305
261 257 249 242 237 235 232 228 225 221 221 223 228 231 228 233 243 246 243 226 235 250 255 255 255 273 279 286 288 275 282 294 297 297 298 299 302 303 307 306 299 289 290
262 258 252 244 240 237 230 228 218 211 218 227 231 239 237 235 236 241 243 241 242 241 250 251 257 275 282 287 287 284 291 300 296 293 295 299 302 303 301 298 296 288 277
267 261 256 249 238 231 226 226 223 213 218 226 227 236 242 231 229 237 244 247 248 245 248 259 269 276 281 281 283 289 293 286 281 287 292 294 293 291 295 299 297 292 285
267 264 257 249 244 234 226 220 219 218 219 222 226 233 237 232 223 221 228 246 252 256 262 264 273 277 278 275 280 286 277 264 274 276 288 293 298 300 301 304 305 309 306
267 265 260 249 243 238 231 225 224 223 218 221 224 223 225 234 232 225 217 222 227 240 248 244 249 259 259 261 263 265 264 276 287 284 291 297 301 304 305 307 304 306 300
267 263 257 250 243 236 237 251 238 232 237 236 234 234 236 238 242 238 239 245 249 252 252 246 249 251 256 262 266 268 270 275 279 285 289 293 297 299 301 303 301 300 300
256 259 257 249 243 236 229 231 250 251 242 242 241 242 243 243 242 243 247 251 253 252 248 246 249 252 255 259 261 263 270 273 276 279 283 286 290 293 295 297 299 299 297
256 255 254 248 239 235 232 230 229 235 244 245 239 241 243 243 244 245 247 248 248 244 243 246 248 250 252 254 257 263 271 276 276 277 279 281 284 287 290 289 291 293 295
261 256 250 247 240 236 233 230 229 232 236 238 232 236 236 238 241 242 238 231 236 240 241 243 243 243 245 245 250 256 261 268 271 273 275 277 279 281 283 284 286 291 293
259 257 254 249 243 240 234 232 233 232 233 233 231 225 209 212 222 228 226 226 233 240 242 242 240 238 238 239 244 251 259 264 267 268 271 274 276 277 280 283 285 288 289
258 259 256 254 245 240 237 236 234 231 232 234 233 225 215 212 221 225 225 225 228 233 238 240 238 235 235 235 240 249 257 263 266 266 269 272 273 275 277 280 282 284 286
253 253 248 247 247 244 243 236 233 234 233 235 235 232 232 225 222 226 228 229 228 229 230 233 236 232 230 231 238 247 254 260 263 264 268 271 271 274 277 279 281 284 285
249 251 251 249 246 249 251 241 235 235 237 235 230 225 225 223 224 227 230 230 228 229 232 232 233 237 240 242 241 241 250 257 260 263 268 271 272 273 275 278 280 283 283
243 246 250 251 247 244 241 240 237 237 237 236 231 226 224 223 226 229 228 225 226 230 232 233 236 239 243 250 251 250 253 258 261 262 259 263 267 270 272 275 278 279 280
244 248 250 249 247 245 242 240 237 237 236 234 231 228 226 226 227 228 226 224 226 231 235 237 242 244 247 251 256 259 263 267 269 267 261 260 262 264 269 273 276 279 279
249 251 253 251 248 243 241 241 239 235 235 234 230 226 224 224 227 227 225 223 227 232 238 243 244 247 252 256 260 265 270 273 274 275 273 266 264 266 269 272 274 277 280
Height
1496 1495 1495 1494 1493 1492 1492 1491 1490 1490 1489 1488 1487 1485 1484 1483 1481 1480 1479 1477 1476 1475 1473 1472 1471 1469 1468 1467 1466 1464 1463 1461 1458 1455 1454 1451 1449 1446 1444 1442 1440 1438 1436
1492 1492 1491 1490 1489 1488 1487 1487 1486 1486 1485 1484 1483 1482 1481 1479 1478 1476 1475 1474 1473 1471 1470 1469 1468 1466 1465 1464 1462 1461 1459 1457 1455 1451 1449 1447 1445 1442 1440 1437 1436 1434 1431
1488 1487 1486 1485 1484 1484 1483 1483 1482 1482 1481 1480 1479 1478 1477 1475 1474 1473 1472 1471 1469 1468 1467 1466 1464 1463 1462 1460 1459 1457 1455 1454 1451 1449 1445 1443 1441 1439 1435 1433 1431 1429 1427
1484 1483 1482 1481 1480 1479 1479 1478 1478 1477 1476 1476 1475 1474 1473 1471 1470 1469 1468 1467 1466 1464 1463 1462 1461 1459 1458 1456 1455 1453 1452 1450 1448 1445 1442 1440 1437 1435 1432 1429 1426 1424 1422
1480 1478 1477 1476 1475 1474 1474 1473 1473 1472 1472 1471 1470 1469 1468 1467 1466 1465 1464 1463 1462 1460 1459 1458 1457 1456 1454 1453 1451 1450 1448 1446 1444 1441 1439 1436 1434 1431 1429 1426 1423 1419 1417
1475 1474 1472 1471 1470 1469 1469 1468 1468 1467 1467 1466 1466 1465 1464 1463 1462 1461 1460 1458 1457 1456 1455 1454 1452 1451 1450 1449 1447 1446 1444 1442 1440 1438 1435 1433 1430 1429 1426 1423 1420 1416 1412
1470 1469 1467 1466 1465 1465 1464 1463 1462 1462 1461 1461 1460 1460 1459 1458 1457 1456 1455 1454 1453 1451 1450 1449 1448 1447 1446 1444 1443 1442 1440 1438 1437 1435 1432 1430 1427 1425 1423 1420 1417 1414 1410
1466 1464 1463 1461 1460 1459 1459 1458 1457 1456 1456 1455 1455 1454 1454 1453 1452 1451 1450 1449 1448 1447 1446 1445 1444 1442 1441 1440 1439 1437 1436 1434 1432 1430 1428 1426 1424 1422 1419 1417 1414 1410 1407
1461 1459 1458 1456 1455 1454 1453 1452 1452 1451 1450 1450 1449 1449 1448 1448 1447 1446 1445 1444 1443 1442 1441 1440 1439 1438 1437 1436 1435 1433 1431 1430 1428 1426 1424 1422 1420 1418 1415 1413 1409 1406 1402
1456 1454 1453 1451 1450 1448 1447 1447 1446 1445 1445 1444 1444 1444 1443 1443 1442 1441 1440 1439 1438 1437 1436 1436 1435 1434 1433 1431 1430 1428 1426 1425 1423 1421 1419 1417 1415 1413 1411 1409 1406 1403 1400
1451 1449 1448 1446 1444 1443 1442 1441 1440 1440 1439 1438 1438 1438 1438 1437 1437 1436 1435 1434 1433 1432 1431 1431 1430 1429 1428 1427 1425 1424 1422 1420 1418 1416 1414 1412 1410 1408 1407 1405 1403 1400 1397
1446 1444 1442 1440 1439 1438 1436 1435 1434 1434 1433 1433 1432 1432 1432 1432 1431 1430 1430 1429 1428 1427 1426 1426 1425 1424 1423 1422 1421 1419 1418 1416 1414 1412 1410 1407 1405 1404 1402 1400 1398 1395 1393
1440 1438 1436 1435 1433 1432 1431 1430 1429 1428 1427 1427 1426 1426 1426 1426 1425 1425 1424 1424 1423 1422 1421 1421 1420 1419 1418 1417 1416 1415 1413 1411 1409 1407 1405 1403 1401 1399 1397 1394 1392 1389 1387
1435 1433 1431 1429 1427 1426 1425 1424 1423 1422 1421 1421 1420 1420 1420 1420 1420 1419 1419 1419 1418 1417 1417 1416 1415 1414 1413 1412 1411 1410 1408 1407 1405 1402 1400 1398 1396 1394 1392 1389 1386 1383 1380
1430 1427 1425 1423 1422 1420 1419 1418 1417 1417 1417 1416 1415 1415 1414 1414 1414 1414 1414 1413 1413 1412 1411 1411 1410 1409 1408 1407 1406 1405 1403 1402 1400 1398 1396 1393 1391 1389 1387 1385 1382 1379 1376
1424 1422 1420 1418 1416 1414 1413 1412 1411 1411 1411 1410 1410 1409 1409 1409 1409 1408 1408 1408 1407 1407 1406 1405 1404 1404 1403 1402 1401 1400 1398 1397 1395 1393 1391 1389 1387 1385 1382 1380 1378 1375 1372
1419 1416 1414 1412 1410 1409 1407 1406 1405 1405 1405 1404 1404 1403 1403 1403 1403 1403 1403 1403 1402 1402 1401 1400 1399 1399 1398 1397 1396 1395 1393 1392 1390 1388 1387 1385 1383 1380 1378 1376 1373 1371 1367
1413 1410 1408 1406 1405 1403 1402 1400 1399 1399 1398 1397 1398 1398 1398 1397 1397 1397 1398 1397 1396 1396 1395 1395 1394 1394 1393 1392 1391 1390 1388 1387 1385 1384 1382 1380 1378 1376 1373 1371 1369 1366 1363
1407 1404 1402 1400 1399 1397 1396 1395 1394 1393 1392 1392 1392 1392 1392 1392 1392 1392 1392 1391 1391 1390 1390 1390 1389 1388 1388 1387 1386 1385 1383 1382 1380 1378 1377 1375 1373 1371 1369 1366 1364 1361 1358
1400 1398 1396 1394 1392 1391 1390 1389 1388 1387 1387 1386 1386 1386 1386 1386 1386 1386 1386 1386 1385 1385 1385 1384 1384 1383 1382 1381 1380 1379 1378 1376 1375 1373 1372 1370 1368 1366 1364 1361 1359 1356 1353
1394 1392 1390 1388 1386 1385 1384 1383 1382 1382 1381 1380 1380 1381 1381 1381 1380 1380 1380 1380 1380 1380 1379 1379 1378 1378 1377 1376 1375 1374 1372 1371 1370 1368 1366 1365 1363 1361 1359 1357 1354 1351 1348
1388 1386 1384 1382 1381 1379 1378 1377 1377 1376 1375 1375 1375 1375 1375 1375 1375 1375 1374 1374 1374 1374 1374 1373 1373 1372 1371 1371 1369 1368 1367 1366 1364 1363 1361 1359 1358 1356 1354 1351 1349 1346 1343
1382 1380 1378 1376 1375 1374 1373 1371 1371 1370 1369 1369 1369 1369 1369 1369 1369 1369 1369 1369 1369 1369 1369 1368 1367 1367 1366 1365 1364 1363 1362 1360 1359 1358 1356 1354 1352 1350 1348 1346 1344 1341 1338
1376 1374 1372 1370 1369 1368 1367 1366 1365 1364 1364 1363 1363 1363 1363 1363 1363 1363 1364 1364 1364 1363 1363 1363 1362 1361 1361 1360 1359 1358 1357 1355 1354 1352 1350 1348 1347 1345 1343 1341 1339 1336 1334
1370 1368 1366 1364 1363 1362 1361 1360 1359 1358 1358 1358 1357 1357 1358 1358 1358 1358 1358 1358 1358 1358 1358 1357 1357 1356 1355 1354 1353 1352 1351 1350 1348 1347 1345 1343 1341 1340 1338 1336 1334 1331 1329
1363 1362 1360 1358 1357 1355 1355 1354 1353 1352 1352 1352 1352 1352 1352 1352 1352 1353 1353 1353 1353 1352 1352 1352 1351 1350 1350 1349 1348 1347 1346 1344 1343 1342 1340 1338 1336 1334 1333 1331 1329 1326 1324